Weather History for Enid, OK

Change the Weather History Date:

Friday, April 4, 2014

  Actual Average Record
Temperature  
Mean Temperature 46 °F -  
Max Temperature 60 °F 64 °F 78 °F (2009)
Min Temperature 33 °F 44 °F 28 °F (2002)
Degree Days  
Heating Degree Days 18    
Moisture  
Dew Point 30 °F    
Average Humidity 65    
Maximum Humidity 93    
Minimum Humidity 25    
Precipitation  
Precipitation 0.00 in - - ()
Sea Level Pressure  
Sea Level Pressure 30.10 in    
Wind  
Wind Speed 12 mph (NNW)    
Max Wind Speed 20 mph    
Max Gust Speed 28 mph    
Visibility 10 miles    
Events      
Averages and records for this station are not official NWS values.
T = Trace of Precipitation, MM = Missing Value Source: NWS Daily Summary

Daily Weather History Graph

Daily Weather History Graph

Search for Another Location

Airport:

Trip Planner

Search our weather history database for the weather conditions in past years. The results will help you decide how hot, cold, wet, or windy it might be!

Date:

Astronomy

Apr. 04, 2014 Rise Set
Actual Time 7:12 AM CDT 7:55 PM CDT
Civil Twilight 6:46 AM CDT 8:21 PM CDT
Nautical Twilight 6:16 AM CDT 8:52 PM CDT
Astronomical Twilight 5:44 AM CDT 9:24 PM CDT
Moon 10:37 AM CDT (4/4) 12:09 AM CDT (4/4)
Length of Visible Light 13h 35m
Length of Day
12h 42m
Waxing Crescent, 25% of the Moon is Illuminated
Apr 4
Waxing Crescent
Apr 7
First Quarter
Apr 15
Full
Apr 22
Last Quarter
Apr 29
New

Hourly Weather History & Observations

Time (CDT) Temp. Windchill Dew Point Humidity Pressure Visibility Wind Dir Wind Speed Gust Speed Precip Events Conditions
12:15 AM 41.0 °F 31.9 °F 32.0 °F 70% 30.02 in 10.0 mi NNW 19.6 mph 26.5 mph N/A   Clear
12:35 AM 41.0 °F 32.5 °F 32.0 °F 70% 30.03 in 10.0 mi NNW 17.3 mph - N/A   Clear
12:55 AM 39.2 °F 30.5 °F 33.8 °F 81% 30.03 in 10.0 mi NNW 16.1 mph 20.7 mph N/A   Clear
1:15 AM 39.2 °F 30.8 °F 33.8 °F 81% 30.04 in 10.0 mi NNW 15.0 mph 18.4 mph N/A   Clear
1:35 AM 39.2 °F 31.6 °F 33.8 °F 81% 30.05 in 10.0 mi NW 12.7 mph - N/A   Clear
1:55 AM 37.4 °F 30.3 °F 33.8 °F 87% 30.05 in 10.0 mi NW 10.4 mph - N/A   Clear
2:15 AM 37.4 °F 30.3 °F 33.8 °F 87% 30.05 in 10.0 mi NW 10.4 mph - N/A   Clear
2:35 AM 37.4 °F 30.8 °F 33.8 °F 87% 30.05 in 10.0 mi NW 9.2 mph - N/A   Clear
2:55 AM 37.4 °F 30.3 °F 33.8 °F 87% 30.05 in 10.0 mi NW 10.4 mph - N/A   Clear
3:15 AM 37.4 °F 29.8 °F 33.8 °F 87% 30.06 in 10.0 mi NW 11.5 mph - N/A   Clear
3:35 AM 37.4 °F 33.8 °F 33.8 °F 87% 30.06 in 10.0 mi WNW 4.6 mph - N/A   Clear
3:55 AM 35.6 °F 32.8 °F 32.0 °F 87% 30.07 in 10.0 mi NW 3.5 mph - N/A   Clear
4:15 AM 35.6 °F 31.7 °F 32.0 °F 87% 30.07 in 10.0 mi WNW 4.6 mph - N/A   Clear
4:35 AM 33.8 °F 29.6 °F 32.0 °F 93% 30.07 in 10.0 mi WNW 4.6 mph - N/A   Clear
4:55 AM 33.8 °F 27.0 °F 32.0 °F 93% 30.07 in 10.0 mi NW 8.1 mph - N/A   Clear
5:15 AM 35.6 °F 27.1 °F 32.0 °F 87% 30.08 in 10.0 mi NW 12.7 mph 16.1 mph N/A   Clear
5:35 AM 37.4 °F 28.9 °F 32.0 °F 81% 30.08 in 10.0 mi NNW 13.8 mph 20.7 mph N/A   Clear
5:55 AM 37.4 °F 29.3 °F 32.0 °F 81% 30.09 in 10.0 mi NNW 12.7 mph - N/A   Clear
6:17 AM 35.6 °F 27.5 °F 32.0 °F 87% 30.09 in 10.0 mi NW 11.5 mph 20.7 mph N/A   Clear
6:50 AM 35.6 °F 27.5 °F 32.0 °F 87% 30.11 in 10.0 mi NW 11.5 mph 20.7 mph N/A   Clear
7:50 AM 37.4 °F 29.3 °F 30.2 °F 75% 30.13 in 10.0 mi NW 12.7 mph 20.7 mph N/A   Clear
8:50 AM 41.0 °F 32.5 °F 30.2 °F 65% 30.15 in 10.0 mi NW 17.3 mph 24.2 mph N/A   Clear
9:55 AM 44.6 °F 36.6 °F 30.2 °F 57% 30.16 in 10.0 mi NNW 19.6 mph 27.6 mph N/A   Partly Cloudy
11:50 AM 51.8 °F - 28.4 °F 41% 30.18 in 10.0 mi NNW 12.7 mph 24.2 mph N/A   Partly Cloudy
12:50 PM 55.4 °F - 28.4 °F 36% 30.17 in 10.0 mi NNW 18.4 mph 26.5 mph N/A   Partly Cloudy
1:50 PM 57.2 °F - 26.6 °F 31% 30.16 in 10.0 mi NNW 11.5 mph 21.9 mph N/A   Partly Cloudy
2:50 PM 59.0 °F - 24.8 °F 27% 30.14 in 10.0 mi NNW 13.8 mph 23.0 mph N/A   Partly Cloudy
3:50 PM 60.8 °F - 24.8 °F 25% 30.12 in 10.0 mi NNW 11.5 mph 19.6 mph N/A   Scattered Clouds
4:50 PM 60.8 °F - 24.8 °F 25% 30.10 in 10.0 mi North 13.8 mph 20.7 mph N/A   Scattered Clouds
5:50 PM 60.8 °F - 24.8 °F 25% 30.09 in 10.0 mi NNW 11.5 mph 17.3 mph N/A   Scattered Clouds
6:50 PM 59.0 °F - 24.8 °F 27% 30.09 in 20.0 mi NNE 9.2 mph - N/A   Scattered Clouds
7:50 PM 53.6 °F - 26.6 °F 35% 30.09 in 10.0 mi NNE 9.2 mph - N/A   Scattered Clouds
8:50 PM 48.2 °F - 26.6 °F 43% 30.11 in 10.0 mi NE 8.1 mph - N/A   Scattered Clouds
9:15 PM 46.4 °F 43.5 °F 28.4 °F 50% 30.12 in 10.0 mi East 5.8 mph - N/A   Clear
9:35 PM 42.8 °F 40.1 °F 28.4 °F 57% 30.12 in 10.0 mi East 4.6 mph - N/A   Clear
9:55 PM 42.8 °F 37.5 °F 28.4 °F 57% 30.13 in 10.0 mi East 9.2 mph - N/A   Clear
10:15 PM 42.8 °F 37.0 °F 28.4 °F 57% 30.12 in 10.0 mi East 10.4 mph - N/A   Clear
10:35 PM 44.6 °F 39.2 °F 28.4 °F 53% 30.12 in 10.0 mi East 10.4 mph - N/A   Clear
10:55 PM 44.6 °F 39.2 °F 26.6 °F 49% 30.12 in 10.0 mi East 10.4 mph - N/A   Clear
11:15 PM 42.8 °F 38.6 °F 26.6 °F 53% 30.12 in 10.0 mi ESE 6.9 mph - N/A   Clear
11:35 PM 37.4 °F 32.8 °F 28.4 °F 70% 30.13 in 10.0 mi ESE 5.8 mph - N/A   Clear
11:55 PM 37.4 °F - 28.4 °F 70% 30.13 in 10.0 mi Calm Calm - N/A   Clear